Location: Newark
(45.8667°N, 9.7333°E)
Time: 11:22:00
(UTC+00:00)

AO-73 - Pass Details

Date: 25 February 2020
Orbit: 581 x 664 km, 97.6° (Epoch: 06 April)

Event Time Altitude Azimuth Distance (km) Brightness Sun altitude
Rises 05:32:26 0° 13° (NNE) 3,013 ? -7.0°
Reaches altitude 10° 05:34:42 10° 15° (NNE) 2,092 ? -6.6°
Maximum altitude 05:39:17 80° 102° (ESE) 674 ? -5.8°
Drops below altitude 10° 05:43:46 10° 190° (S) 2,047 ? -5.0°
Sets 05:45:57 0° 191° (SSW) 2,942 ? -4.6°
